星链-1031 (STARLINK-1031 )

导读 | 星芒AI

STARLINK-1031 是 SpaceX Starlink 项目中的一颗低轨通信卫星,属于第 10 批部署的星链卫星群。该卫星于 2022 年发射,旨在为全球用户提供高速互联网服务。它运行在约 550 公里的轨道高度,采用先进的相控阵天线和激光通信技术,以提升网络连接的稳定性和效率。作为星链星座的一部分,STARLINK-1031 有助于扩大覆盖范围,特别是在偏远和网络基础设施薄弱的地区。

基本信息
目录编号:
44736
目录名称:
STARLINK-1031
国际标识:
2019-074Z
轨道中心:
EARTH
卫星名称:
星链-1031
卫星全名:
星链-1031 (STARLINK-1031 )
卫星状态:
在轨 (已飞行2224 天)
发射日期:
2019-11-11 UTC
国别 :
美国 (US)
星等 :
--
轨道信息
数据来源 国际轨道数据
星历时间: 2025-12-13T08:12:00+0800
9小时前
查看轨道信息
半长轴: 6768.277km
偏心率: 0.0007787
轨道倾角: 53.048°
近地点辐角 90.085°
升交点赤经 190.971°
平近点角 270.106°
近地点: 384.871km
远地点: 395.413km
周期: 92.358分钟
每日圈数: 15.591419
详细信息
固有亮度:
5
最大亮度:
2.5
卫星平台:
Starlink V1.0
覆盖范围:
全球
运营商:
太空探索技术公司
运营商所在国:
美国
制造商(研发单位):
太空探索技术公司
制造商所在国:
美国
使用方式:
暂无
卫星简介
星链(Starlink)计划是由太空探索技术公司(SpaceX)提出的一个巨型低轨卫星互联网星座项目,计划在2019年至2024年间在太空搭建由约1.2万颗卫星组成的“星链”网络,其中1584颗将部署在地球上空550千米处的近地轨道,并从2020年开始工作。该卫星仍在工作。
2D轨道图
3D轨道图
轨道高度分析图
轨道倾角分析图
轨道综合分析图
查看轨道综合分析图